sat.trackr.live / text

‹ back to catalog

STARLINK-5663

NORAD 55347 · 2023-013S

PAYLOAD ACTIVE UNKNOWN

§ Identity

Operator
Country
US
Launch date
2023-01-26
Launch site
AFETR
Launch vehicle
Mass (kg)
RCS (m²)

Purposes: comms

External: N2YO · Heavens-Above · Gunter

§ Orbital elements

Epoch: 2026-09-19T19:08:37.397184Z

Period
94.27 min
Inclination
43.0052°
Eccentricity
0.0001845
Mean motion
15.27580989 rev/d
Perigee alt
481.8 km
Apogee alt
484.3 km
Semi-major
6,861.2 km
B*
4.3101e-5
RAAN
286.8516°
Arg perigee
288.3013°
Mean anomaly
71.7637°
Rev number
20,136

§ Raw data

STARLINK-56631 55347U 23013S   26262.79765506  .00000924  00000+0  43101-4 0  99932 55347  43.0052 286.8516 0001845 288.3013  71.7637 15.27580989201366

JSON: /api/v1/satellites/55347 · /tle

For live sub-satellite position, see the globe view (requires WebGL).

§ Visibility from observer

Set your observer location to see the next 7 days of passes ≥ 10°. The values pass through the URL so the page stays shareable.

No JS? Fill the form by hand. The geolocation button needs JavaScript.